Tracking 19164 objects as of 21-May-2018
HD Live streaming from Space Station
objects crossing your sky now

COSMOS 713

Track COSMOS 713 now!
10-day predictions
COSMOS 713 is classified as:


NORAD ID: 7680
Int'l Code: 1975-016C
Perigee: 1,402.2 km
Apogee: 1,494.2 km
Inclination: 74.0 °
Period: 114.7 minutes
Semi major axis: 7819 km
RCS: 0.6922 m2 (medium)
Launch date: February 28, 1975
Source: Commonwealth of Independent States (former USSR) (CIS)
Launch site: PLESETSK MISSILE AND SPACE COMPLEX (PKMTR)
aabbcc
Your satellite tracking list
Your tracking list is empty




NASA's NSSDC Master Catalog

Two Line Element Set (TLE):
1  7680U 75016C   18140.82990476 -.00000017 +00000-0 -22567-5 0  9996
2  7680 074.0061 026.0510 0058800 297.5815 128.5252 12.55627146981207
Source of the keplerian elements: AFSPC